Location: M.A.R.S.Observatory
(35.4031°N, 81.5481°W)
Time: 23:20:45
(UTC-04:00)

SL-8 R/B - Visible Passes

Search period start: 29 April 2016 00:00
Search period end: 09 May 2016 00:00
Orbit: 657 x 668 km, 48.4° (Epoch: 29 April)

Date Brightness Start Highest point End Pass type
(mag) Time Alt. Az. Time Alt. Az. Time Alt. Az.
29 Apr 4.2 05:17:59 20° SSW 05:21:04 53° SE 05:25:45 10° ENE visible
30 Apr 5.4 04:09:55 22° SE 04:10:00 22° SE 04:13:40 10° E visible
30 Apr 3.9 05:47:55 13° WSW 05:52:13 65° NW 05:57:00 10° NE visible
01 May 4.0 04:39:47 45° S 04:40:55 57° SE 04:45:39 10° ENE visible
02 May 5.8 03:31:35 19° E 03:31:35 19° E 03:33:41 10° E visible
02 May 3.9 05:09:34 27° WSW 05:12:06 61° NNW 05:16:52 10° NE visible
03 May 4.1 04:01:18 57° ESE 04:01:18 57° ESE 04:05:32 10° ENE visible
03 May 5.0 05:39:16 10° W 05:43:34 31° NNW 05:47:52 10° NE visible
04 May 6.3 02:52:58 13° E 02:52:58 13° E 02:53:39 10° ENE visible
04 May 4.0 04:30:57 46° W 04:31:58 57° NNW 04:36:44 10° NE visible
05 May 5.1 03:22:34 35° ENE 03:22:34 35° ENE 03:25:26 10° ENE visible
05 May 5.1 05:00:32 17° WNW 05:03:28 30° NNW 05:07:43 10° NE visible
06 May 4.2 03:52:07 53° NNW 03:52:07 53° NNW 03:56:35 10° NE visible
06 May 5.8 05:31:41 10° WNW 05:35:14 20° NNW 05:38:47 10° NE visible
07 May 5.9 02:43:39 21° ENE 02:43:39 21° ENE 02:45:18 10° ENE visible
07 May 5.2 04:21:37 23° WNW 04:23:22 29° NNW 04:27:34 10° NE visible
08 May 5.0 03:13:06 38° NNE 03:13:06 38° NNE 03:16:26 10° NE visible
08 May 5.9 04:51:39 10° WNW 04:55:09 19° NNW 04:58:40 10° NE visible
